Location: Banksville Park
(38.5557°N, 75.1182°W)
Time: 03:04:12
(UTC+00:00)

USA 238 DEB - Pass Details

Date: 19 September 2020
Orbit: 1006 x 1206 km, 63.4° (Epoch: 15 October)

Event Time Altitude Azimuth Distance (km) Brightness Sun altitude
Rises 00:56:24 0° 329° (NNW) 3,958 7.5 -22.5°
Reaches altitude 10° 00:59:08 10° 334° (NNW) 3,025 6.7 -23.0°
Maximum altitude 01:06:15 55° 52° (NE) 1,384 4.0 -24.3°
Enters shadow 01:08:00 46° 95° (E) 1,544 4.1 -24.6°
